H1 CPF 2 NER 2024 2 15 9 046 01 glonass131 H2 1301901 9131 39155 2024 2 15 0 0 0 2024 2 18 23 45 0 900 1 1 0 0 0 1 H9 10 0 60355 0.00000 0 -13749911.944 18882540.381 10218461.321 10 0 60355 900.00000 0 -14414489.069 19737318.810 7232024.411 10 0 60355 1800.00000 0 -14763002.397 20358762.411 4104770.290 10 0 60355 2700.00000 0 -14823828.419 20697401.481 897524.223 10 0 60355 3600.00000 0 -14635663.764 20712490.317 -2327220.946 10 0 60355 4500.00000 0 -14245683.581 20373885.070 -5506535.466 10 0 60355 5400.00000 0 -13707346.305 19663492.748 -8578299.523 10 0 60355 6300.00000 0 -13077938.567 18576226.595 -11482439.918 10 0 60355 7200.00000 0 -12415965.983 17120424.209 -14162129.924 10 0 60355 8100.00000 0 -11778502.705 15317708.056 -16564926.279 10 0 60355 9000.00000 0 -11218614.765 13202292.322 -18643818.574 10 0 60355 9900.00000 0 -10782969.220 10819764.327 -20358168.215 10 0 60355 10800.00000 0 -10509732.871 8225391.688 -21674516.887 10 0 60355 11700.00000 0 -10426851.567 5482027.024 -22567247.506 10 0 60355 12600.00000 0 -10550784.167 2657699.424 -23019084.220 10 0 60355 13500.00000 0 -10885745.154 -177004.877 -23021421.822 10 0 60355 14400.00000 0 -11423487.465 -2951661.476 -22574478.875 10 0 60355 15300.00000 0 -12143633.524 -5598711.553 -21687272.796 10 0 60355 16200.00000 0 -13014538.661 -8056036.835 -20377419.039 10 0 60355 17100.00000 0 -13994648.311 -10269298.483 -18670760.160 10 0 60355 18000.00000 0 -15034289.335 -12193943.243 -16600834.076 10 0 60355 18900.00000 0 -16077817.733 -13796795.132 -14208193.884 10 0 60355 19800.00000 0 -17066030.312 -15057168.909 -11539594.434 10 0 60355 20700.00000 0 -17938737.294 -15967462.205 -8647063.221 10 0 60355 21600.00000 0 -18637386.806 -16533205.341 -5586875.101 10 0 60355 22500.00000 0 -19107630.748 -16772570.647 -2418451.768 10 0 60355 23400.00000 0 -19301724.727 -16715365.546 796791.987 10 0 60355 24300.00000 0 -19180662.391 -16401554.792 3996632.749 10 0 60355 25200.00000 0 -18715956.172 -15879376.358 7119231.179 10 0 60355 26100.00000 0 -17890991.511 -15203131.574 10104310.680 10 0 60355 27000.00000 0 -16701899.565 -14430742.881 12894300.704 10 0 60355 27900.00000 0 -15157913.295 -13621181.298 15435424.377 10 0 60355 28800.00000 0 -13281192.881 -12831870.382 17678711.542 10 0 60355 29700.00000 0 -11106127.857 -12116173.742 19580919.940 10 0 60355 30600.00000 0 -8678144.241 -11521069.321 21105348.987 10 0 60355 31500.00000 0 -6052064.682 -11085105.766 22222532.531 10 0 60355 32400.00000 0 -3290087.285 -10836724.677 22910798.822 10 0 60355 33300.00000 0 -459463.967 -10793017.757 23156688.079 10 0 60355 34200.00000 0 2370028.776 -10958970.507 22955219.976 10 0 60355 35100.00000 0 5128725.287 -11327224.642 22310005.585 10 0 60355 36000.00000 0 7749706.342 -11878370.620 21233200.540 10 0 60355 36900.00000 0 10171328.186 -12581760.251 19745298.515 10 0 60355 37800.00000 0 12339541.938 -13396808.104 17874766.691 10 0 60355 38700.00000 0 14209907.864 -14274730.110 15657527.492 10 0 60355 39600.00000 0 15749220.615 -15160649.198 13136293.781 10 0 60355 40500.00000 0 16936676.728 -15995981.804 10359767.629 10 0 60355 41400.00000 0 17764534.004 -16721006.352 7381715.779 10 0 60355 42300.00000 0 18238233.089 -17277505.966 4259938.000 10 0 60355 43200.00000 0 18375974.088 -17611373.340 1055147.284 10 0 60355 44100.00000 0 18207764.152 -17675066.042 -2170216.535 10 0 60355 45000.00000 0 17773974.855 -17429805.888 -5353215.986 10 0 60355 45900.00000 0 17123469.695 -16847426.103 -8431662.631 10 0 60355 46800.00000 0 16311381.170 -15911784.560 -11345354.860 10 0 60355 47700.00000 0 15396632.617 -14619679.804 -14037280.174 10 0 60355 48600.00000 0 14439311.610 -12981227.975 -16454755.844 10 0 60355 49500.00000 0 13498008.541 -11019682.221 -18550483.141 10 0 60355 50400.00000 0 12627235.672 -8770700.538 -20283492.182 10 0 60355 51300.00000 0 11875038.418 -6281092.172 -21619957.176 10 0 60355 52200.00000 0 11280902.048 -3607095.346 -22533864.915 10 0 60355 53100.00000 0 10874043.769 -812259.504 -23007522.871 10 0 60355 54000.00000 0 10672163.003 2034977.862 -23031897.094 10 0 60355 54900.00000 0 10680702.375 4863916.904 -22606774.021 10 0 60355 55800.00000 0 10892649.496 7604312.420 -21740744.238 10 0 60355 56700.00000 0 11288886.035 10189067.697 -20451010.157 10 0 60355 57600.00000 0 11839066.953 12556792.402 -18763023.232 10 0 60355 58500.00000 0 12502990.127 14654118.158 -16709959.810 10 0 60355 59400.00000 0 13232395.887 16437676.482 -14332047.896 10 0 60355 60300.00000 0 13973118.125 17875658.652 -11675759.846 10 0 60355 61200.00000 0 14667494.216 18948895.217 -8792888.486 10 0 60355 62100.00000 0 15256930.839 19651413.430 -5739526.053 10 0 60355 63000.00000 0 15684516.850 19990453.002 -2574966.852 10 0 60355 63900.00000 0 15897573.248 19985943.179 639444.385 10 0 60355 64800.00000 0 15850033.635 19669466.418 3841495.996 10 0 60355 65700.00000 0 15504556.336 19082754.872 6969302.188 10 0 60355 66600.00000 0 14834281.012 18275784.716 9962482.899 10 0 60355 67500.00000 0 13824157.762 17304549.217 12763309.318 10 0 60355 68400.00000 0 12471794.470 16228604.005 15317794.700 10 0 60355 69300.00000 0 10787787.989 15108486.568 17576711.487 10 0 60355 70200.00000 0 8795525.696 14003116.461 19496517.369 10 0 60355 71100.00000 0 6530465.227 12967283.011 21040174.668 10 0 60355 72000.00000 0 4038921.058 12049323.297 22177849.283 10 0 60355 72900.00000 0 1376406.212 11289085.355 22887477.401 10 0 60355 73800.00000 0 -1394404.954 10716259.947 23155190.195 10 0 60355 74700.00000 0 -4206011.712 10349149.527 22975588.774 10 0 60355 75600.00000 0 -6988626.428 10193925.569 22351863.808 10 0 60355 76500.00000 0 -9672816.718 10244405.944 21295756.467 10 0 60355 77400.00000 0 -12192143.706 10482363.106 19827359.703 10 0 60355 78300.00000 0 -14485689.195 10878352.374 17974761.366 10 0 60355 79200.00000 0 -16500368.164 11393028.123 15773533.344 10 0 60355 80100.00000 0 -18192930.705 11978895.337 13266073.750 10 0 60355 81000.00000 0 -19531569.402 12582425.280 10500812.131 10 0 60355 81900.00000 0 -20497063.567 13146448.042 7531290.648 10 0 60355 82800.00000 0 -21083410.416 13612722.042 4415137.275 10 0 60355 83700.00000 0 -21297914.421 13924571.926 1212949.840 10 0 60355 84600.00000 0 -21160728.840 14029482.199 -2012887.660 10 0 60355 85500.00000 0 -20703866.884 13881534.720 -5199432.777 10 0 60356 0.00000 0 -19969723.113 13443583.971 -8284430.804 10 0 60356 900.00000 0 -19009166.676 12689074.254 -11207554.770 10 0 60356 1800.00000 0 -17879288.609 11603418.916 -13911608.437 10 0 60356 2700.00000 0 -16640898.443 10184879.033 -16343671.702 10 0 60356 3600.00000 0 -15355878.959 8444901.989 -18456159.320 10 0 60356 4500.00000 0 -14084513.003 6407903.243 -20207771.598 10 0 60356 5400.00000 0 -12882897.866 4110499.181 -21564316.383 10 0 60356 6300.00000 0 -11800558.676 1600222.865 -22499385.067 10 0 60356 7200.00000 0 -10878363.272 -1066222.982 -22994868.765 10 0 60356 8100.00000 0 -10146827.400 -3825101.495 -23041304.703 10 0 60356 9000.00000 0 -9624881.749 -6608074.867 -22638046.695 10 0 60356 9900.00000 0 -9319151.856 -9344831.992 -21793257.596 10 0 60356 10800.00000 0 -9223779.425 -11965799.413 -20523725.492 10 0 60356 11700.00000 0 -9320790.147 -14404821.653 -18854509.067 10 0 60356 12600.00000 0 -9580989.559 -16601698.774 -16818421.115 10 0 60356 13500.00000 0 -9965346.090 -18504475.976 -14455362.296 10 0 60356 14400.00000 0 -10426799.977 -20071391.092 -11811520.027 10 0 60356 15300.00000 0 -10912419.145 -21272400.888 -8938449.902 10 0 60356 16200.00000 0 -11365809.077 -22090225.310 -5892058.930 10 0 60356 17100.00000 0 -11729673.713 -22520869.337 -2731511.425 10 0 60356 18000.00000 0 -11948418.870 -22573604.069 481920.513 10 0 60356 18900.00000 0 -11970688.682 -22270411.232 3686039.492 10 0 60356 19800.00000 0 -11751729.110 -21644917.284 6818915.727 10 0 60356 20700.00000 0 -11255480.442 -20740864.072 9820068.089 10 0 60356 21600.00000 0 -10456312.408 -19610181.500 12631611.806 10 0 60356 22500.00000 0 -9340330.652 -18310743.439 15199352.440 10 0 60356 23400.00000 0 -7906201.067 -16903900.322 17473807.032 10 0 60356 24300.00000 0 -6165458.162 -15451890.352 19411134.978 10 0 60356 25200.00000 0 -4142284.516 -14015235.596 20973962.968 10 0 60356 26100.00000 0 -1872769.573 -12650229.369 22132090.081 10 0 60356 27000.00000 0 596323.205 -11406617.412 22863061.199 10 0 60356 27900.00000 0 3209232.232 -10325567.373 23152598.833 10 0 60356 28800.00000 0 5903250.355 -9438009.635 22994885.540 10 0 60356 29700.00000 0 8611072.501 -8763417.695 22392691.240 10 0 60356 30600.00000 0 11263344.675 -8309078.875 21357341.977 10 0 60356 31500.00000 0 13791311.820 -8069886.532 19908528.992 10 0 60356 32400.00000 0 16129457.371 -8028663.965 18073959.521 10 0 60356 33300.00000 0 18218026.639 -8157008.503 15888853.338 10 0 60356 34200.00000 0 20005329.872 -8416622.759 13395291.926 10 0 60356 35100.00000 0 21449728.794 -8761079.426 10641430.108 10 0 60356 36000.00000 0 22521222.506 -9137947.320 7680582.956 10 0 60356 36900.00000 0 23202564.444 -9491190.314 4570203.851 10 0 60356 37800.00000 0 23489861.178 -9763738.245 1370772.416 10 0 60356 38700.00000 0 23392625.362 -9900120.482 -1855386.376 10 0 60356 39600.00000 0 22933278.260 -9849048.998 -5045328.337 10 0 60356 40500.00000 0 22146121.052 -9565839.017 -8136736.195 10 0 60356 41400.00000 0 21075817.232 -9014561.457 -11069159.481 10 0 60356 42300.00000 0 19775450.080 -8169832.425 -13785221.484 10 0 60356 43200.00000 0 18304237.941 -7018160.423 -16231767.107 10 0 60356 44100.00000 0 16725005.396 -5558790.984 -18360926.615 10 0 60356 45000.00000 0 15101519.143 -3804010.432 -20131072.155 10 0 60356 45900.00000 0 13495803.427 -1778894.043 -21507646.491 10 0 60356 46800.00000 0 11965550.478 479491.755 -22463846.509 10 0 60356 47700.00000 0 10561737.034 2923399.700 -22981147.479 10 0 60356 48600.00000 0 9326548.524 5496168.865 -23049657.914 10 0 60356 49500.00000 0 8291698.654 8134373.462 -22668298.719 10 0 60356 50400.00000 0 7477214.491 10770261.795 -21844804.346 10 0 60356 51300.00000 0 6890736.592 13334381.928 -20595547.493 10 0 60356 52200.00000 0 6527361.218 15758283.166 -18945192.659 10 0 60356 53100.00000 0 6370028.277 17977179.800 -16926187.324 10 0 60356 54000.00000 0 6390435.266 19932465.913 -14578102.709 10 0 60356 54900.00000 0 6550435.289 21573977.012 -11946838.902 10 0 60356 55800.00000 0 6803857.046 22861905.591 -9083711.589 10 0 60356 56700.00000 0 7098667.331 23768292.859 -6044439.648 10 0 60356 57600.00000 0 7379382.842 24278037.129 -2888054.320 10 0 60356 58500.00000 0 7589628.363 24389379.825 324248.104 10 0 60356 59400.00000 0 7674733.059 24113851.981 3530287.683 10 0 60356 60300.00000 0 7584255.864 23475686.447 6668093.732 10 0 60356 61200.00000 0 7274334.607 22510722.853 9677086.964 10 0 60356 62100.00000 0 6709761.480 21264852.882 12499229.320 10 0 60356 63000.00000 0 5865699.189 19792071.736 15080121.045 10 0 60356 63900.00000 0 4728967.203 18152217.171 17370025.837 10 0 60356 64800.00000 0 3298845.246 16408489.578 19324806.547 10 0 60356 65700.00000 0 1587360.731 14624854.862 20906755.641 10 0 60356 66600.00000 0 -380952.322 12863436.179 22085306.456 10 0 60356 67500.00000 0 -2569814.209 11182000.692 22837613.297 10 0 60356 68400.00000 0 -4932450.905 9631643.486 23148990.364 10 0 60356 69300.00000 0 -7413286.785 8254762.965 23013201.607 10 0 60356 70200.00000 0 -9950011.860 7083410.401 22432595.696 10 0 60356 71100.00000 0 -12475941.390 6138081.581 21418082.566 10 0 60356 72000.00000 0 -14922573.376 5427000.934 19988950.286 10 0 60356 72900.00000 0 -17222240.768 4945928.860 18172523.531 10 0 60356 73800.00000 0 -19310750.440 4678501.814 16003667.561 10 0 60356 74700.00000 0 -21129900.342 4597092.904 13524144.450 10 0 60356 75600.00000 0 -22629770.154 4664159.016 10781831.238 10 0 60356 76500.00000 0 -23770688.985 4834019.829 7829812.660 10 0 60356 77400.00000 0 -24524795.979 5054995.293 4725364.186 10 0 60356 78300.00000 0 -24877126.076 5271812.102 1528843.939 10 0 60356 79200.00000 0 -24826172.526 5428177.311 -1697485.336 10 0 60356 80100.00000 0 -24383899.794 5469409.003 -4890680.761 10 0 60356 81000.00000 0 -23575203.922 5345010.469 -7988365.106 10 0 60356 81900.00000 0 -22436841.389 5011075.951 -10929967.624 10 0 60356 82800.00000 0 -21015870.787 4432422.602 -13657933.278 10 0 60356 83700.00000 0 -19367673.145 3584354.767 -16118874.102 10 0 60356 84600.00000 0 -17553635.347 2453982.473 -18264637.654 10 0 60356 85500.00000 0 -15638596.040 1041035.411 -20053269.283 10 0 60357 0.00000 0 -13688163.936 -641864.102 -21449847.463 10 0 60357 900.00000 0 -11766022.648 -2569483.077 -22427175.225 10 0 60357 1800.00000 0 -9931340.098 -4704801.096 -22966311.755 10 0 60357 2700.00000 0 -8236389.467 -7000342.954 -23056936.262 10 0 60357 3600.00000 0 -6724484.955 -9399961.686 -22697535.718 10 0 60357 4500.00000 0 -5428317.820 -11840996.644 -21895414.728 10 0 60357 5400.00000 0 -4368761.535 -14256714.599 -20666528.825 10 0 60357 6300.00000 0 -3554194.085 -16578930.281 -19035146.251 10 0 60357 7200.00000 0 -2980362.983 -18740695.624 -17033346.863 10 0 60357 8100.00000 0 -2630795.195 -20678944.783 -14700369.982 10 0 60357 9000.00000 0 -2477731.038 -22336984.506 -12081825.798 10 0 60357 9900.00000 0 -2483539.094 -23666726.663 -9228787.505 10 0 60357 10800.00000 0 -2602549.247 -24630571.237 -6196783.272 10 0 60357 11700.00000 0 -2783223.910 -25202863.311 -3044708.764 10 0 60357 12600.00000 0 -2970573.983 -25370865.794 166317.953 10 0 60357 13500.00000 0 -3108716.631 -25135210.114 3374136.705 10 0 60357 14400.00000 0 -3143466.891 -24509808.871 6516738.135 10 0 60357 15300.00000 0 -3024854.480 -23521236.601 9533446.926 10 0 60357 16200.00000 0 -2709461.010 -22207606.463 12366073.764 10 0 60357 17100.00000 0 -2162480.840 -20616990.944 14960015.483 10 0 60357 18000.00000 0 -1359420.537 -18805452.793 17265284.186 10 0 60357 18900.00000 0 -287366.994 -16834767.668 19237447.714 10 0 60357 19800.00000 0 1054228.102 -14769931.971 20838465.593 10 0 60357 20700.00000 0 2653280.220 -12676557.485 22037406.407 10 0 60357 21600.00000 0 4485332.329 -10618258.688 22811034.541 10 0 60357 22500.00000 0 6514334.560 -8654138.647 23144256.206 10 0 60357 23400.00000 0 8693913.235 -6836475.514 23030416.719 10 0 60357 24300.00000 0 10969079.704 -5208703.655 22471443.152 10 0 60357 25200.00000 0 13278311.524 -3803771.938 21477828.676 10 0 60357 26100.00000 0 15555923.052 -2642946.878 20068457.232 10 0 60357 27000.00000 0 17734630.207 -1735110.714 18270269.701 10 0 60357 27900.00000 0 19748205.352 -1076584.644 16117775.333 10 0 60357 28800.00000 0 21534113.471 -651486.235 13652415.016 10 0 60357 29700.00000 0 23036020.392 -432607.883 10921785.945 10 0 60357 30600.00000 0 24206067.861 -382781.430 7978740.169 10 0 60357 31500.00000 0 25006818.803 -456673.155 4880372.633 10 0 60357 32400.00000 0 25412788.922 -602934.552 1686917.100 10 0 60357 33300.00000 0 25411497.522 -766618.325 -1539428.938 10 0 60357 34200.00000 0 25003990.302 -891756.736 -4735727.017 10 0 60357 35100.00000 0 24204809.271 -923991.532 -7839543.008 10 0 60357 36000.00000 0 23041408.699 -813141.532 -10790188.804 10 0 60357 36900.00000 0 21553040.141 -515595.973 -13529933.700 10 0 60357 37800.00000 0 19789152.864 3571.254 -16005159.210 10 0 60357 38700.00000 0 17807377.372 768859.474 -18167432.178 10 0 60357 39600.00000 0 15671178.088 1793048.106 -19974472.799 10 0 60357 40500.00000 0 13447275.764 3076409.765 -21390996.772 10 0 60357 41400.00000 0 11202950.070 4606464.636 -22389413.753 10 0 60357 42300.00000 0 9003337.803 6358287.426 -22950367.780 10 0 60357 43200.00000 0 6908841.883 8295354.009 -23063109.100 10 0 60357 44100.00000 0 4972760.893 10370891.542 -22725690.736 10 0 60357 45000.00000 0 3239238.832 12529674.067 -21944987.086 10 0 60357 45900.00000 0 1741620.263 14710186.720 -20736535.774 10 0 60357 46800.00000 0 501278.054 16847066.194 -19124207.668 10 0 60357 47700.00000 0 -473039.726 18873713.775 -17139713.518 10 0 60357 48600.00000 0 -1185319.738 20724970.530 -14821958.895 10 0 60357 49500.00000 0 -1651849.260 22339742.254 -12216261.913 10 0 60357 50400.00000 0 -1900260.211 23663464.561 -9373450.784 10 0 60357 51300.00000 0 -1968095.244 24650305.972 -6348860.226 10 0 60357 52200.00000 0 -1900959.559 25265018.457 -3201247.382 10 0 60357 53100.00000 0 -1750338.827 25484360.168 8350.994 10 0 60357 54000.00000 0 -1571176.929 25298033.366 3217797.637 10 0 60357 54900.00000 0 -1419316.361 24709100.914 6365047.635 10 0 60357 55800.00000 0 -1348909.105 23733866.340 9389332.662 10 0 60357 56700.00000 0 -1409906.165 22401224.505 12232314.990 10 0 60357 57600.00000 0 -1645730.054 20751511.309 14839190.671 10 0 60357 58500.00000 0 -2091226.457 18834900.985 17159722.581 10 0 60357 59400.00000 0 -2770979.485 16709417.434 19149185.637 10 0 60357 60300.00000 0 -3698059.926 14438641.164 20769208.210 10 0 60357 61200.00000 0 -4873258.263 12089205.278 21988495.591 10 0 60357 62100.00000 0 -6284834.724 9728182.039 22783423.364 10 0 60357 63000.00000 0 -7908797.877 7420465.723 23138490.476 10 0 60357 63900.00000 0 -9709702.153 5226257.623 23046623.917 10 0 60357 64800.00000 0 -11641933.817 3198755.059 22509328.996 10 0 60357 65700.00000 0 -13651435.171 1382138.375 21536681.432 10 0 60357 66600.00000 0 -15677798.750 -190061.618 20147159.829 10 0 60357 67500.00000 0 -17656647.735 -1496148.277 18367319.519 10 0 60357 68400.00000 0 -19522206.451 -2526946.016 16231311.466 10 0 60357 69300.00000 0 -21209955.900 -3285959.649 13780252.637 10 0 60357 70200.00000 0 -22659264.712 -3788997.856 11061457.268 10 0 60357 71100.00000 0 -23815885.576 -4063274.732 8127541.330 10 0 60357 72000.00000 0 -24634211.570 -4146025.346 5035415.668 10 0 60357 72900.00000 0 -25079195.708 -4082692.293 1845186.066 10 0 60357 73800.00000 0 -25127850.336 -3924759.028 -1381018.833 10 0 60357 74700.00000 0 -24770260.078 -3727321.734 -4580268.459 10 0 60357 75600.00000 0 -24010062.493 -3546503.560 -7690075.100 10 0 60357 76500.00000 0 -22864373.258 -3436822.736 -10649636.385 10 0 60357 77400.00000 0 -21363156.759 -3448628.813 -13401048.765 10 0 60357 78300.00000 0 -19548067.197 -3625718.867 -15890465.734 10 0 60357 79200.00000 0 -17470808.554 -4003238.020 -18069175.511 10 0 60357 80100.00000 0 -15191082.947 -4605956.390 -19894574.761 10 0 60357 81000.00000 0 -12774214.883 -5446998.121 -21331017.369 10 0 60357 81900.00000 0 -10288553.028 -6527078.273 -22350520.335 10 0 60357 82800.00000 0 -7802760.514 -7834281.026 -22933312.272 10 0 60357 83700.00000 0 -5383109.275 -9344388.922 -23068213.734 10 0 60357 84600.00000 0 -3090893.124 -11021748.827 -22752842.539 10 0 60357 85500.00000 0 -980068.609 -12820637.090 -21993641.165 10 0 60358 0.00000 0 904777.714 -14687064.737 -20805727.372 10 0 60358 900.00000 0 2530052.713 -16560946.180 -19212572.069 10 0 60358 1800.00000 0 3874302.554 -18378536.129 -17245514.410 10 0 60358 2700.00000 0 4928839.394 -20075034.405 -14943123.493 10 0 60358 3600.00000 0 5697823.723 -21587246.000 -12350422.550 10 0 60358 4500.00000 0 6197803.869 -22856185.511 -9517991.973 10 0 60358 5400.00000 0 6456735.853 -23829517.044 -6500970.211 10 0 60358 6300.00000 0 6512528.480 -24463728.380 -3357973.108 10 0 60358 7200.00000 0 6411178.006 -24725949.991 -149953.437 10 0 60358 8100.00000 0 6204573.254 -24595344.807 3060977.014 10 0 60358 9000.00000 0 5948065.059 -24064012.870 6212740.184 10 0 60358 9900.00000 0 5697902.883 -23137375.298 9244476.989 10 0 60358 10800.00000 0 5508646.163 -21834023.507 12097703.349 10 0 60358 11700.00000 0 5430658.231 -20185041.422 14717416.373 10 0 60358 12600.00000 0 5507786.622 -18232829.720 17053131.313 10 0 60358 13500.00000 0 5775325.447 -16029480.979 19059831.481 10 0 60358 14400.00000 0 6258343.730 -13634772.368 20698815.106 10 0 60358 15300.00000 0 6970448.571 -11113857.579 21938424.875 10 0 60358 16200.00000 0 7913034.406 -8534751.383 22754647.897 10 0 60358 17100.00000 0 9075050.116 -5965708.304 23131575.850 10 0 60358 18000.00000 0 10433294.998 -3472601.157 23061717.053 10 0 60358 18900.00000 0 11953233.397 -1116405.245 22546154.393 10 0 60358 19800.00000 0 13590296.914 1049109.860 21594545.210 10 0 60358 20700.00000 0 15291623.177 2979386.908 20224961.573 10 0 60358 21600.00000 0 16998162.082 4640703.519 18463571.854 10 0 60358 22500.00000 0 18647064.826 6011343.282 16344167.094 10 0 60358 23400.00000 0 20174258.498 7082265.830 13907538.497 10 0 60358 24300.00000 0 21517100.312 7857246.555 11200715.280 10 0 60358 25200.00000 0 22617000.983 8352478.369 8276075.069 10 0 60358 26100.00000 0 23421906.727 8595650.354 5190342.148 10 0 60358 27000.00000 0 23888534.056 8624540.429 2003491.671 10 0 60358 27900.00000 0 23984260.896 8485180.268 -1222419.331 10 0 60358 28800.00000 0 23688591.258 8229669.603 -4424471.000 10 0 60358 29700.00000 0 22994128.336 7913732.852 -7540124.816 10 0 60358 30600.00000 0 21907011.695 7594122.968 -10508466.775 10 0 60358 31500.00000 0 20446797.231 7325984.720 -13271422.899 10 0 60358 32400.00000 0 18645782.820 7160291.967 -15774920.783 10 0 60358 33300.00000 0 16547806.826 7141470.668 -17969971.845 10 0 60358 34200.00000 0 14206569.780 7305311.443 -19813650.722 10 0 60358 35100.00000 0 11683550.403 7677262.893 -21269950.700 10 0 60358 36000.00000 0 9045604.815 8271180.074 -22310497.087 10 0 60358 36900.00000 0 6362351.402 9088582.502 -22915103.777 10 0 60358 37800.00000 0 3703452.731 10118453.587 -23072162.084 10 0 60358 38700.00000 0 1135909.903 11337589.721 -22778854.792 10 0 60358 39600.00000 0 -1278516.420 12711483.273 -22041192.310 10 0 60358 40500.00000 0 -3485650.236 14195700.762 -20873871.778 10 0 60358 41400.00000 0 -5440912.338 15737696.302 -19299963.701 10 0 60358 42300.00000 0 -7110917.862 17278982.078 -17350434.205 10 0 60358 43200.00000 0 -8474594.987 18757562.798 -15063514.304 10 0 60358 44100.00000 0 -9523781.268 20110530.455 -12483930.415 10 0 60358 45000.00000 0 -10263276.393 21276709.495 -9662012.888 10 0 60358 45900.00000 0 -10710353.220 22199241.167 -6652701.457 10 0 60358 46800.00000 0 -10893751.512 22827999.040 -3514468.050 10 0 60358 47700.00000 0 -10852200.209 23121735.470 -308178.701 10 0 60358 48600.00000 0 -10632533.224 23049870.634 2904083.095 10 0 60358 49500.00000 0 -10287480.072 22593851.136 6060208.996 10 0 60358 50400.00000 0 -9873225.382 21748023.344 9099251.991 10 0 60358 51300.00000 0 -9446840.099 20519986.861 11962584.423 10 0 60358 52200.00000 0 -9063691.724 18930414.853 14595007.134 10 0 60358 53100.00000 0 -8774941.052 17012349.654 16945790.265 10 0 60358 54000.00000 0 -8625228.809 14810003.108 18969627.862 10 0 60358 54900.00000 0 -8650647.334 12377110.835 20627490.119 10 0 60358 55800.00000 0 -8877080.730 9774907.264 21887358.953 10 0 60358 56700.00000 0 -9318981.814 7069803.177 22724834.539 10 0 60358 57600.00000 0 -9978636.652 4330859.225 23123602.456 10 0 60358 58500.00000 0 -10845947.932 1627157.004 23075753.117 10 0 60358 59400.00000 0 -11898747.597 -974826.487 22581947.298 10 0 60358 60300.00000 0 -13103627.969 -3413735.056 21651423.759 10 0 60358 61200.00000 0 -14417259.486 -5635638.076 20301847.315 10 0 60358 62100.00000 0 -15788143.247 -7596029.597 18558998.089 10 0 60358 63000.00000 0 -17158728.315 -9261439.341 16456305.391 10 0 60358 63900.00000 0 -18467808.044 -10610588.187 14034232.355 10 0 60358 64800.00000 0 -19653097.198 -11635038.883 11339520.427 10 0 60358 65700.00000 0 -20653883.009 -12339313.176 8424305.786 10 0 60358 66600.00000 0 -21413638.888 -12740468.540 5345122.785 10 0 60358 67500.00000 0 -21882489.813 -12867150.427 2161812.414 10 0 60358 68400.00000 0 -22019423.512 -12758158.482 -1063643.529 10 0 60358 69300.00000 0 -21794151.295 -12460586.299 -4268339.523 10 0 60358 70200.00000 0 -21188536.641 -12027613.296 -7389689.807 10 0 60358 71100.00000 0 -20197527.682 -11516042.935 -10366672.178 10 0 60358 72000.00000 0 -18829550.941 -10983693.258 -13141045.483 10 0 60358 72900.00000 0 -17106346.909 -10486752.627 -15658514.396 10 0 60358 73800.00000 0 -15062252.464 -10077215.563 -17869816.152 10 0 60358 74700.00000 0 -12742959.315 -9800510.271 -19731705.524 10 0 60358 75600.00000 0 -10203800.638 -9693421.104 -21207816.822 10 0 60358 76500.00000 0 -7507638.569 -9782396.193 -22269384.660 10 0 60358 77400.00000 0 -4722442.590 -10082313.441 -22895808.565 10 0 60358 78300.00000 0 -1918661.887 -10595757.782 -23075050.326 10 0 60358 79200.00000 0 833496.718 -11312840.123 -22803856.812 10 0 60358 80100.00000 0 3466770.105 -12211564.698 -22087804.968 10 0 60358 81000.00000 0 5919405.892 -13258727.737 -20941169.630 10 0 60358 81900.00000 0 8137488.070 -14411307.575 -19386618.517 10 0 60358 82800.00000 0 10076925.079 -15618285.377 -17454742.385 10 0 60358 83700.00000 0 11705019.219 -16822817.648 -15183431.512 10 0 60358 84600.00000 0 13001554.602 -17964667.183 -12617112.650 10 0 60358 85500.00000 0 13959361.536 -18982788.767 -9805863.121 99